Location: Thompson
(55.7500°N, 97.8670°W)
Time: 18:01:56
(UTC-05:00)

Cosmos 1666 - Visible Passes

Search period start: 30 March 2015 00:00
Search period end: 09 April 2015 00:00
Orbit: 510 x 536 km, 82.5° (Epoch: 30 March)

Date Brightness Start Highest point End Pass type
(mag) Time Alt. Az. Time Alt. Az. Time Alt. Az.
30 Mar 5.6 04:01:53 10° NNE 04:04:39 18° ENE 04:07:29 10° ESE visible
30 Mar 2.7 05:37:05 10° NNW 05:40:59 64° W 05:44:52 10° S visible
31 Mar 5.7 03:49:18 10° NNE 03:51:54 17° ENE 03:54:34 10° ESE visible
31 Mar 2.6 05:24:22 10° NNW 05:28:18 72° W 05:32:13 10° S visible
01 Apr 5.7 03:36:43 10° NNE 03:39:07 16° ENE 03:41:37 10° E visible
01 Apr 2.6 05:11:39 10° NNW 05:15:36 80° W 05:19:32 10° S visible
02 Apr 5.8 03:24:09 10° NNE 03:26:19 14° ENE 03:28:36 10° E visible
02 Apr 2.7 04:58:55 10° NNW 05:02:53 89° WSW 05:06:50 10° S visible
03 Apr 5.8 03:11:37 10° NNE 03:13:31 13° NE 03:15:33 10° E visible
03 Apr 2.8 04:46:10 10° N 04:50:08 83° ENE 04:54:05 10° SSE visible
04 Apr 5.8 02:59:05 10° NNE 03:00:42 12° NE 03:02:25 10° E visible
04 Apr 2.9 04:33:25 10° N 04:37:23 75° ENE 04:41:01 12° SSE visible
04 Apr 4.5 06:10:29 10° NW 06:12:47 15° W 06:14:59 10° WSW visible
05 Apr 5.9 02:46:38 10° NE 02:47:50 11° NE 02:49:11 10° ENE visible
05 Apr 3.1 04:20:40 10° N 04:24:36 67° ENE 04:27:42 16° SSE visible
05 Apr 4.4 05:57:31 10° NW 06:00:04 16° W 06:02:31 10° WSW visible
06 Apr 6.0 02:34:23 10° NE 02:34:58 10° NE 02:35:42 10° ENE visible
06 Apr 3.2 04:07:53 10° N 04:11:49 60° ENE 04:14:29 19° SSE visible
06 Apr 4.3 05:44:34 10° NW 05:47:20 18° W 05:49:37 12° SW visible
07 Apr 3.4 03:55:07 10° N 03:59:00 54° ENE 04:01:20 22° SE visible
07 Apr 4.2 05:31:38 10° NW 05:34:35 20° W 05:36:28 14° WSW visible
08 Apr 3.6 03:42:19 10° N 03:46:10 48° ENE 03:48:15 24° SE visible
08 Apr 4.1 05:18:42 10° NW 05:21:49 22° W 05:23:22 17° WSW visible
